Weather reports worldwide

Advertisment
Koivu-Mankkaa, Finland (2985): temperature & dewpoint: 12.12.2017 01:00:00 - 18.12.2017 01:00:00 (EET)Koivu-Mankkaa, Finland (2985): wind speed: 12.12.2017 01:00:00 - 18.12.2017 01:00:00 (EET)Koivu-Mankkaa, Finland (2985): wind direction: 12.12.2017 01:00:00 - 18.12.2017 01:00:00 (EET)Koivu-Mankkaa, Finland (2985): reduced air pressure: 12.12.2017 01:00:00 - 18.12.2017 01:00:00 (EET)Koivu-Mankkaa, Finland (2985): visibility: 12.12.2017 01:00:00 - 18.12.2017 01:00:00 (EET)Koivu-Mankkaa, Finland (2985): precipitation: 12.12.2017 01:00:00 - 18.12.2017 01:00:00 (EET)
Date & Time tt [°C] td [°C] ff [km/h] ff [kn] dd ppp [hPa] vv [km] rr [mm]
18.12.2017 01:00:00 -1,5 -2,8 6 4 SSW 1016,7 40 0,0
18.12.2017 00:00:00 -0,7 -2,6 6 3 SW 1016,1 38 0,0
17.12.2017 23:00:00 -0,8 -2,8 8 5 SSW 1015,8 49 0,0
17.12.2017 22:00:00 -0,9 -3,1 6 3 SW 1015,1 45 0,0
17.12.2017 21:00:00 -1,3 -2,9 11 6 WSW 1014,5 31 0,0
17.12.2017 20:00:00 -1,5 -3,0 10 5 WSW 1014,1 28 0,0
17.12.2017 19:00:00 -2,0 -3,5 9 5 W 1013,5 34 0,0
17.12.2017 18:00:00 -1,3 -3,2 14 7 NW 1012,9 43 0,0
17.12.2017 17:00:00 -1,4 -2,8 11 6 W 1012,0 29 0,0
17.12.2017 16:00:00 -1,2 -2,5 13 7 WNW 1011,3 44 0,0
17.12.2017 15:00:00 -0,7 -2,1 16 9 WNW 1010,8 40 0,0
17.12.2017 14:00:00 -0,2 -2,0 11 6 NW 1010,2 45 0,0
17.12.2017 13:00:00 0,6 -1,3 11 6 NW 1009,6 48 0,0
17.12.2017 12:00:00 0,9 -0,1 11 6 W 1009,1 35 0,0
17.12.2017 11:00:00 0,8 -0,2 11 6 WNW 1008,6 35 0,0
17.12.2017 10:00:00 0,6 -0,5 9 5 W 1007,9 43 0,0
17.12.2017 09:00:00 0,3 -0,8 8 4 NW 1007,3 50 0,0
17.12.2017 08:00:00 0,2 -0,4 6 3 NNW 1006,6 23 0,0
17.12.2017 07:00:00 -0,1 -0,5 16 9 NNW 1006,1 45 0,0
17.12.2017 06:00:00 -0,2 -0,4 7 4 NNW 1005,3 15 0,0
17.12.2017 05:00:00 -0,4 -0,6 11 6 NNW 1004,9 6 0,0
17.12.2017 04:00:00 0,1 -0,2 8 4 NNW 1004,7 7 0,0
17.12.2017 03:00:00 0,4 0,2 5 3 NNW 1004,5 8 0,0
17.12.2017 02:00:00 0,4 0,2 6 3 NW 1003,8 5 0,0
17.12.2017 01:00:00 0,6 0,4 6 4 NW 1003,5 5 0,0
17.12.2017 00:00:00 0,5 0,3 0 0 N 1003,2 3,9 0,0
16.12.2017 23:00:00 0,8 0,4 2 1 NNW 1002,9 8 0,0
16.12.2017 22:00:00 0,9 0,5 4 2 WNW 1002,5 13 0,0
16.12.2017 21:00:00 1,1 0,8 7 4 WSW 1002,2 12 0,8
16.12.2017 20:00:00 1,2 0,5 8 4 SW 1001,9 3,3 0,4
16.12.2017 19:00:00 1,4 0,6 7 4 WNW 1001,6 40 0,0
16.12.2017 18:00:00 2,4 0,9 11 6 SW 1001,1 24 0,0
16.12.2017 17:00:00 2,5 1,1 17 9 S 1000,6 19 0,0
16.12.2017 16:00:00 2,5 1,5 13 7 S 999,8 15 0,1
16.12.2017 15:00:00 2,5 1,6 15 8 S 999,4 10 0,3
16.12.2017 14:00:00 2,4 1,5 16 8 S 998,8 13 0,2
16.12.2017 13:00:00 2,5 1,5 16 9 S 998,2 8 0,1
16.12.2017 12:00:00 2,5 1,6 16 9 S 998,0 8 0,1
16.12.2017 11:00:00 2,7 1,4 16 8 S 997,7 19 0,0
16.12.2017 10:00:00 2,7 1,3 16 8 S 997,4 19 0,0
16.12.2017 09:00:00 2,6 1,1 16 9 S 996,7 25 0,0
16.12.2017 08:00:00 2,6 1,1 21 11 S 996,5 20 0,0
16.12.2017 07:00:00 2,4 1,1 20 11 S 996,1 19 0,0
16.12.2017 06:00:00 2,4 1,1 21 11 S 996,0 19 0,0
16.12.2017 05:00:00 2,2 0,9 24 13 S 995,7 20 0,1
16.12.2017 04:00:00 2,2 1,2 23 13 S 995,2 16 0,2
16.12.2017 03:00:00 1,7 1,0 25 14 S 995,0 8 0,9
16.12.2017 02:00:00 1,6 0,9 21 11 S 994,9 6 1,2
16.12.2017 01:00:00 2,3 1,0 25 14 S 994,6 10 0,3
16.12.2017 00:00:00 2,3 1,1 24 13 S 994,5 21 0,4
15.12.2017 23:00:00 2,0 0,9 28 15 SSE 994,3 10 0,4
15.12.2017 22:00:00 2,5 0,9 26 14 S 994,1 21 0,1
15.12.2017 21:00:00 2,8 0,8 20 11 S 994,1 29 0,0
15.12.2017 20:00:00 2,8 1,1 19 10 S 993,7 33 0,0
15.12.2017 19:00:00 2,7 1,0 15 8 S 993,3 42 0,0
15.12.2017 18:00:00 2,7 0,9 17 9 S 992,9 34 0,0
15.12.2017 17:00:00 2,3 1,4 15 8 S 992,6 23 0,0
15.12.2017 16:00:00 2,2 1,6 14 8 S 992,3 19 0,0
15.12.2017 15:00:00 1,6 1,5 10 5 S 991,6 6 0,0
15.12.2017 14:00:00 1,3 1,2 10 6 S 991,3 3,2 0,0
15.12.2017 13:00:00 0,4 0,2 8 5 SE 991,2 6 0,7
15.12.2017 12:00:00 0,3 0,1 8 4 SSE 991,3 0,9 2,0
15.12.2017 11:00:00 0,3 0,1 9 5 SSE 991,2 0,9 2,0
15.12.2017 10:00:00 0,3 0,0 9 5 SSE 991,0 0,7 1,3
15.12.2017 09:00:00 0,6 0,4 11 6 SE 990,9 3,1 1,7
15.12.2017 08:00:00 0,6 0,3 11 6 SE 990,9 1,1 0,9
15.12.2017 07:00:00 0,6 0,3 15 8 SE 990,9 2,4 0,8
15.12.2017 06:00:00 0,5 0,1 14 8 SE 990,9 2,5 0,3
15.12.2017 05:00:00 0,4 0,1 14 7 SE 991,0 1,8 0,5
15.12.2017 04:00:00 0,4 -0,1 18 10 ESE 991,0 1,2 0,4
15.12.2017 03:00:00 0,3 -0,3 21 11 SE 991,5 4,4 0,5
15.12.2017 02:00:00 0,2 -0,5 20 11 SE 991,9 15 0,2
15.12.2017 01:00:00 -0,1 -0,4 22 12 SE 992,3 1,0 1,2
15.12.2017 00:00:00 -0,1 -0,6 21 12 SE 992,6 0,4 0,5
14.12.2017 23:00:00 0,8 -2,3 24 13 SE 992,7 6 0,0
14.12.2017 22:00:00 1,1 -2,4 21 12 SE 993,2 34 0,0
14.12.2017 21:00:00 0,8 -2,7 24 13 SE 993,7 40 0,0
14.12.2017 20:00:00 0,8 -3,0 24 13 SE 994,3 32 0,0
14.12.2017 19:00:00 0,7 -3,0 24 13 SE 994,7 30 0,0
14.12.2017 18:00:00 0,6 -3,3 24 13 SE 995,1 30 0,0
14.12.2017 17:00:00 0,5 -3,6 24 13 SSE 995,8 32 0,0
14.12.2017 16:00:00 0,2 -3,7 20 11 SSE 996,0 35 0,0
14.12.2017 15:00:00 0,6 -3,3 25 14 SE 996,1 38 0,0
14.12.2017 14:00:00 0,8 -2,9 20 11 SE 996,4 34 0,0
14.12.2017 13:00:00 0,7 -2,8 22 12 SE 997,3 29 0,0
14.12.2017 12:00:00 0,7 -2,4 20 11 SSE 998,2 29 0,0
14.12.2017 11:00:00 0,6 -2,7 18 10 SSE 998,8 29 -
14.12.2017 10:00:00 0,9 -2,1 19 10 S 998,9 31 0,0
14.12.2017 09:00:00 1,1 -2,1 24 13 S 998,9 33 0,0
14.12.2017 08:00:00 1,5 -1,6 26 14 S 998,9 34 0,0
14.12.2017 07:00:00 2,0 -1,4 25 13 S 998,8 34 0,0
14.12.2017 06:00:00 2,3 -1,0 28 15 S 998,6 28 0,0
14.12.2017 05:00:00 2,5 -0,6 30 16 S 998,4 25 0,0
14.12.2017 04:00:00 2,9 0,1 34 18 S 998,5 28 0,0
14.12.2017 03:00:00 3,2 0,5 30 16 SSW 998,6 28 0,0
14.12.2017 02:00:00 3,4 0,9 32 17 SSW 998,4 25 0,0
14.12.2017 01:00:00 2,4 1,2 19 11 SW 998,5 15 0,3
14.12.2017 00:00:00 3,3 1,2 27 15 SSW 998,2 27 0,1
13.12.2017 23:00:00 2,7 0,9 19 11 SSW 998,3 11 0,0
13.12.2017 22:00:00 2,5 1,0 18 10 SW 998,2 30 1,2
13.12.2017 21:00:00 2,4 1,3 24 13 SW 998,0 8 0,5
13.12.2017 20:00:00 2,7 1,6 17 9 SW 997,8 18 0,2
13.12.2017 19:00:00 2,6 2,0 16 9 SSW 997,5 13 0,4
13.12.2017 18:00:00 2,2 1,5 22 12 SSW 997,3 8 0,9
13.12.2017 17:00:00 2,6 0,0 23 12 S 997,5 43 0,0
13.12.2017 16:00:00 2,3 -2,4 13 7 SSW 997,7 45 0,0
13.12.2017 15:00:00 1,6 -2,6 19 10 SW 997,9 41 0,0
13.12.2017 14:00:00 1,3 -3,2 18 10 SW 997,9 46 0,0
13.12.2017 13:00:00 1,2 -3,0 22 12 SW 997,6 47 0,0
13.12.2017 12:00:00 0,3 -3,9 16 9 SW 997,5 49 0,0
13.12.2017 11:00:00 -0,3 -4,3 19 10 WSW 997,3 50 0,0
13.12.2017 10:00:00 0,0 -3,8 18 10 WSW 996,6 46 0,0
13.12.2017 09:00:00 0,2 -4,2 22 12 WSW 995,5 50 0,0
13.12.2017 08:00:00 0,4 -3,1 23 12 WSW 994,3 48 0,0
13.12.2017 07:00:00 0,6 -2,7 21 11 WSW 993,0 49 0,0
13.12.2017 06:00:00 0,7 -2,4 21 11 W 991,7 45 0,0
13.12.2017 05:00:00 0,6 -1,6 20 11 W 990,2 39 0,0
13.12.2017 04:00:00 0,2 -2,1 14 8 W 989,3 49 0,0
13.12.2017 03:00:00 0,1 -2,7 20 11 W 987,9 50 0,0
13.12.2017 02:00:00 0,6 -1,7 18 10 W 987,1 48 0,0
13.12.2017 01:00:00 1,0 -0,8 21 12 W 986,2 48 0,0
13.12.2017 00:00:00 1,5 0,1 19 10 W 984,7 50 0,0
12.12.2017 23:00:00 2,8 1,4 21 11 W 983,6 46 0,0
12.12.2017 22:00:00 4,5 3,6 23 13 SSW 982,2 31 0,5
12.12.2017 21:00:00 4,6 4,0 26 14 SSW 982,5 10 1,1
12.12.2017 20:00:00 4,0 3,6 23 12 S 982,8 8 1,2
12.12.2017 19:00:00 3,3 2,8 21 11 S 983,3 6 2,0
12.12.2017 18:00:00 2,6 2,0 19 10 S 984,1 11 1,6
12.12.2017 17:00:00 1,1 0,7 19 10 S 984,8 3,9 3,2
12.12.2017 16:00:00 0,5 0,2 18 10 SSE 985,8 1,3 2,8
12.12.2017 15:00:00 0,6 0,2 20 11 SSE 986,8 1,2 3,3
12.12.2017 14:00:00 0,8 0,4 20 11 SE 988,0 1,9 4,2
12.12.2017 13:00:00 0,6 0,2 19 10 SE 989,4 1,1 3,9
12.12.2017 12:00:00 0,5 0,2 19 11 ESE 990,9 1,1 2,8
12.12.2017 11:00:00 0,6 0,3 21 11 ESE 992,0 1,7 2,2
12.12.2017 10:00:00 - - - - - - - -
12.12.2017 09:00:00 0,6 0,1 17 9 E 993,9 1,5 1,6
12.12.2017 08:00:00 0,5 -0,1 16 9 ESE 995,9 1,2 0,6
12.12.2017 07:00:00 0,1 -0,7 18 10 ESE 996,6 1,4 0,8
12.12.2017 06:00:00 0,0 -1,3 18 10 ESE 998,0 17 0,4
12.12.2017 05:00:00 0,1 -1,8 17 9 ESE 998,8 18 0,0
12.12.2017 04:00:00 0,2 -2,1 19 10 SE 999,3 39 0,0
12.12.2017 03:00:00 0,2 -2,2 18 10 ESE 999,7 38 0,1
12.12.2017 02:00:00 -0,3 -2,0 18 10 ESE 1001,0 2,5 0,0
12.12.2017 01:00:00 0,0 -2,9 19 11 ESE 1001,1 25 0,1

tt = temperature
td = dewpoint
ff = wind speed
dd = wind direction
ppp = reduced air pressure
vv = visibility
rr = precipitation

Next stations